Regional Weather Roundup
Issued by NWS

Home | Current Version | Previous Version | Graphics & Text | Print | Product List | Glossary On
Versions: 1 2 3 4 5 6 7 8 9 10 11 12 13 14 15 16 17 18 19 20 21 22 23 24 25 26 27 28 29 30 31 32 33 34 35 36 37 38 39 40 41 42 43 44 45 46 47 48 49 50
000
ASUS43 KLMK 210010
RWRKY
KENTUCKY REGIONAL WEATHER ROUNDUP
NATIONAL WEATHER SERVICE LOUISVILLE KY
800 PM EDT FRI APR 20 2018

NOTE "FAIR" INDICATES FEW OR NO CLOUDS BELOW 12,000 FEET
WITH NO SIGNIFICANT WEATHER AND/OR OBSTRUCTIONS TO VISIBILITY.

KYZ001>023-026-027-061>063-070>075-210100-
WESTERN AND SOUTH CENTRAL KENTUCKY

CITY           SKY/WX    TMP DP  RH WIND       PRES   REMARKS
PADUCAH        FAIR      62  28  27 NE9       30.31F
HENDERSON      FAIR      61  33  35 NE8       30.35F
OWENSBORO      FAIR      62  23  22 E5        30.36S
HOPKINSVILLE   FAIR      61  33  35 SE3       30.31F
BOWLING GREEN  FAIR      60  29  30 E8        30.34F
GLASGOW        FAIR      57  26  30 N3        30.34F
$$

KYZ024-025-028>034-038-045-046-053-210100-
NORTH CENTRAL KENTUCKY

CITY           SKY/WX    TMP DP  RH WIND       PRES   REMARKS
LOUISVILLE/SDF MOCLDY    61  23  23 E7        30.37S
LOUISVILLE/LOU FAIR      59  29  31 E6        30.38S
FORT KNOX      FAIR      59  25  27 E7        30.37S
$$

KYZ035>037-039>044-047>052-055>060-089>105-210100-
NORTHEAST KENTUCKY

CITY           SKY/WX    TMP DP  RH WIND       PRES   REMARKS
LEXINGTON      FAIR      53  28  38 NE8       30.38F
COVINGTON      MOCLDY    56  23  27 NE7       30.40S
FRANKFORT      FAIR      56  21  25 E8        30.36F
$$

KYZ054-064>069-076>088-106>120-210100-
SOUTHEAST KENTUCKY

CITY           SKY/WX    TMP DP  RH WIND       PRES   REMARKS
JACKSON        FAIR      56  20  24 NE3       30.36S
LONDON         FAIR      58  20  22 NE6       30.34S
SOMERSET       FAIR      55  27  33 N9        30.36S
MIDDLESBORO    FAIR      59  24  25 N3        30.32S
MONTICELLO     FAIR      56  31  38 N17       30.36S
$$




USA.gov is the U.S. government's official web portal to all federal, state and local government web resources and services.